Flag for Taiwan Weather past 2 weeks in Kaohsiung, Taiwan

Now
75 °F

Sprinkles. Overcast.


Feels Like: 73 °F
Forecast: 77 / 89 °F
Wind: 6 mph from East

Location: Kaohsiung International Airport

Current Time: May 22, 2015 at 11:16:33 PM

Latest Report: May 22, 2015 at 10:30 PM


Visibility: 4 mi

Pressure: 29.83 "Hg

Humidity: 100%

Dew point: 75 °F

Location of KaohsiungLocation

Historic Weather in Kaohsiung — Graph

°F

Kaohsiung temperature yesterday

Maximum temperature yesterday: 86 °F (at 3:30 PM)
Minimum temperature yesterday: 75 °F (at 2:00 AM)
Average temperature yesterday: 79 °F

Past Weeks' High & Low Weather Summary

 TemperatureHumidityPressure
High91 °F (May 10, 12:00 PM)100% (May 21, 4:00 AM)29.98 "Hg (May 21, 4:00 AM)
Low75 °F (May 21, 2:00 AM)55% (May 10, 3:30 PM)29.71 "Hg (May 11, 3:00 PM)
Average83 °F76%29.84 "Hg
* Reported May 7 10:00 PM — May 22 10:00 PM, Kaohsiung, Weather by CustomWeather, © 2015

Note: Actual official high and low records may vary slightly from our data, if they occured in-between our weather recording intervals... More about our weather records

Advertising

Kaohsiung weather history for previous 24 hours

 ConditionsComfort  
Time TempWeatherWind HumidityBarometerVisibility
10:00 PM
Fri, May 22
75 °FPartly cloudy.6 mph100%29.83 "HgN/A
9:30 PM75 °FOvercast.2 mph100%29.80 "HgN/A
9:00 PM75 °FSprinkles. Partly cloudy.3 mph100%29.80 "Hg6 mi
8:30 PM75 °FSprinkles. Overcast.3 mph100%29.80 "Hg4 mi
8:00 PM75 °FSprinkles. Overcast.12 mph100%29.80 "Hg4 mi
7:51 PM77 °FSprinkles. Overcast.9 mph94%29.80 "Hg5 mi
7:30 PM77 °FSprinkles. Overcast.13 mph94%29.80 "Hg5 mi
7:00 PM79 °FSprinkles. Overcast.15 mph94%29.80 "HgN/A
6:48 PM79 °FSprinkles. Overcast.13 mph94%29.80 "HgN/A
6:30 PM77 °FSprinkles. Cloudy.13 mph100%29.77 "Hg2 mi
6:00 PM79 °FSprinkles. Cloudy.12 mph94%29.77 "Hg6 mi
5:48 PM79 °FSprinkles. Cloudy.12 mph94%29.77 "Hg6 mi
5:30 PM79 °FSprinkles. Cloudy.10 mph94%29.77 "Hg3 mi
5:00 PM79 °FSprinkles. Cloudy.12 mph94%29.77 "Hg6 mi
4:54 PM79 °FSprinkles. Cloudy.12 mph94%29.77 "HgN/A
4:30 PM81 °FSprinkles. Cloudy.10 mph89%29.77 "HgN/A
4:03 PM81 °FSprinkles. Cloudy.12 mph89%29.77 "HgN/A
3:30 PM81 °FCloudy.9 mph89%29.77 "HgN/A
3:00 PM81 °FBroken clouds.10 mph89%29.77 "HgN/A
2:30 PM81 °FLight rain. Broken clouds.10 mph89%29.77 "HgN/A
2:00 PM81 °FSprinkles. Cloudy.7 mph94%29.80 "HgN/A
1:30 PM81 °FCloudy.13 mph89%29.80 "HgN/A
1:00 PM81 °FSprinkles. Cloudy.14 mph89%29.80 "Hg4 mi
12:30 PM79 °FSprinkles. Cloudy.15 mph94%29.80 "Hg3 mi
12:00 PM79 °FSprinkles. Cloudy.16 mph94%29.80 "Hg2 mi
11:30 AM79 °FRain showers. Cloudy.16 mph94%29.80 "Hg1 mi
11:00 AM77 °FRain showers. Cloudy.16 mph100%29.83 "Hg1 mi
10:30 AM77 °FSprinkles. Cloudy.17 mph94%29.80 "Hg1 mi
10:02 AM79 °FSprinkles. Cloudy.16 mph89%29.83 "Hg2 mi
9:30 AM79 °FSprinkles. Cloudy.12 mph89%29.83 "Hg2 mi
9:00 AM82 °FSprinkles. Partly sunny.14 mph79%29.83 "Hg6 mi
8:30 AM82 °FPartly sunny.16 mph79%29.80 "HgN/A
8:00 AM79 °FLight rain. Partly sunny.9 mph89%29.80 "HgN/A
7:30 AM79 °FLight rain. Partly sunny.7 mph89%29.80 "Hg6 mi
7:00 AM82 °FSprinkles. Partly sunny.15 mph74%29.80 "Hg6 mi
6:30 AM82 °FSprinkles. Partly sunny.16 mph74%29.80 "HgN/A
6:00 AM81 °FSprinkles. Partly sunny.14 mph79%29.80 "HgN/A
5:03 AM84 °FSprinkles. Passing clouds.16 mph66%29.77 "HgN/A
4:00 AM84 °FPassing clouds.17 mph66%29.77 "HgN/A
3:00 AM84 °FPartly cloudy.10 mph66%29.77 "HgN/A
2:00 AM82 °FPassing clouds.15 mph70%29.80 "HgN/A
1:58 AM82 °FPassing clouds.16 mph70%29.80 "HgN/A
1:00 AM81 °FLight rain. Passing clouds.13 mph79%29.80 "HgN/A
12:00 AM77 °FLight rain. Partly cloudy.9 mph89%29.83 "HgN/A
11:30 PM
Thu, May 21
75 °FSprinkles. Passing clouds.9 mph94%29.83 "HgN/A
11:00 PM75 °FPartly cloudy.9 mph94%29.83 "HgN/A
Weather by CustomWeather, © 2015

See weather overviewHow to use our weather pages